Location: *
(46.4000°N, 12.6667°E)
Time: 10:54:24
(UTC+00:00)

Cosmos 1726 Rocket - Pass Details

Date: 09 April 2020
Orbit: 602 x 630 km, 82.5° (Epoch: 25 May)

Event Time Altitude Azimuth Distance (km) Brightness Sun altitude
Rises 18:55:14 0° 192° (SSW) 2,884 6.9 -11.6°
Reaches altitude 10° 18:57:27 10° 194° (SSW) 1,988 6.1 -11.9°
Maximum altitude 19:01:51 73° 279° (W) 659 3.8 -12.6°
Drops below altitude 10° 19:06:20 10° 5° (N) 2,018 6.5 -13.3°
Sets 19:08:35 0° 8° (N) 2,932 7.3 -13.6°
